Location: Byszew
(52.1813°N, 19.2693°E)
Time: 04:33:43
(UTC+00:00)

Cosmos 1844 - Pass Details

Date: 19 June 2021
Orbit: 823 x 867 km, 70.9° (Epoch: 03 August)

Event Time Altitude Azimuth Distance (km) Brightness Sun altitude
Rises 20:36:52 0° 324° (NW) 3,372 9.1 -9.4°
Reaches altitude 10° 20:39:30 10° 315° (NW) 2,437 7.5 -9.6°
Maximum altitude 20:44:25 33° 253° (WSW) 1,360 4.9 -10.0°
Drops below altitude 10° 20:49:22 10° 191° (S) 2,440 5.6 -10.3°
Enters shadow 20:50:00 - 188° (S) 2,659 5.8 -10.4°
